Find Starlink 32879

NORAD ID: 62957 Int'l Des: 2025-029 Owner: SPXS Country: US Constellation: starlink operational
LEOCIRCULAR

实时位置

正在加载3D地球...

关于 Starlink 32879

正在加载描述...

即将过境

Passes for default location (London). Set your location on the main map for personalized predictions.

高度历史

Loading altitude history...

两行轨道根数

1 62957U 25029K 26125.91668981 .00027769 00000-0 90379-3 0 9993
2 62957 53.1605 326.8237 0001571 74.9437 38.6668 15.31680966 5872
Epoch: May 5, 2026 • Age: 10 hours

当前状态

高度 471.1 km
速度 7.63 km/s
星下点 6.83°N, 160.93°E
发射日期 Feb 11, 2025
运行时间 1.2 years
类型 internet

技术详情

分类 Payload
质量 730.00 kg
干质量 700.00 kg
总质量 730.00 kg
长度 0.30 m
直径 4.10 m
跨度 29.00 m
形状 Box + pan
制造商 SPXS
平台类型 Starlink V2M
阶段状态 In Orbit
所有者/国家 SPXS/US

Most Searched